SCP
0 0 0 0 0 0 0 0 0 0 0 0 0 0 0 0 0 0 0 0 0 0 0 0 0 0 0 0 0 0 0 0 0 0 0 0 0 0 0 0 0 0 0 0
0 0 0 0 0 0 0 0 0 0 0 0 0 0 0 0 0 0 0 0 0 0 0 0 0 0 0 0 0 0 0 0 0 0 0 0 0 0 0 0 0 0 0 0
0 0 0 0 0 0 0 0 0 0 0 0 0 0 0 0 0 0 0 0 0 0 0 0 0 0 0 0 0 0 0 0 0 0 0 0 0 0 0 0 0 0 0 0
0 0 0 0 0 0 0 0 0 0 0 0 0 0 0 0 0 0 0 0 0 0 0 0 0 0 0 0 0 0 0 0 0 0 0 0 0 0 0 0 0 0 0 0
0 0 0 0 0 0 0 0 0 0 0 0 0 0 0 0 0 0 0 0 0 0 0 0 0 0 0 0 0 0 0 0 0 0 0 0 0 0 0 0 0 0 0 0
0 0 0 0 0 0 0 0 0 0 0 0 0 0 0 0 0 0 0 0 0 0 0 0 0 0 0 0 0 0 0 0 0 0 0 0 0 0 0 0 0 0 0 0
0 0 0 0 0 0 0 0 0 0 0 0 0 0 0 0 0 0 0 0 0 0 0 0 0 0 0 0 0 0 0 0 0 0 0 0 0 0 0 0 0 0 0 0
0 0 0 0 0 0 0 0 0 0 0 0 0 0 0 0 0 0 0 0 0 0 0 0 0 0 0 0 0 0 0 0 0 0 0 0 0 0 0 0 0 0 0 0
0 0 0 0 0 0 0 0 0 0 0 0 0 0 0 0 0 0 0 0 0 0 0 0 0 0 0 0 0 0 0 0 0 0 0 0 0 0 0 0 0 0 0 0
0 0 0 0 0 0 0 0 0 0 0 0 0 0 0 0 0 0 0 0 0 0 0 0 1 1 0 0 0 0 0 0 0 0 0 0 0 0 0 0 0 0 0 0
0 0 0 0 0 0 0 0 0 0 0 0 0 0 0 0 0 0 0 0 0 0 0 0 1 1 0 0 0 0 0 0 0 0 0 0 0 0 0 0 0 0 0 0
0 0 0 0 0 0 0 0 0 0 0 0 0 0 0 0 0 0 0 0 0 0 0 0 0 0 0 0 0 0 0 0 0 0 0 0 0 0 0 0 0 0 0 0
0 0 0 0 0 0 0 0 0 0 0 0 0 0 0 0 0 0 0 0 0 0 0 0 0 0 0 0 0 0 0 0 0 0 0 0 0 0 0 0 0 0 0 0
0 0 0 0 0 0 0 0 0 0 0 0 0 0 0 0 0 0 0 0 0 0 0 0 0 0 0 0 0 0 0 0 0 0 0 0 0 0 0 0 0 0 0 0
0 0 0 0 0 0 0 0 0 0 0 0 0 0 0 0 0 0 0 0 0 0 0 0 0 0 0 0 0 0 0 0 0 0 0 0 0 0 0 0 0 0 0 0
0 0 0 0 0 0 0 0 0 0 0 0 0 0 0 0 0 0 0 0 0 0 0 0 0 0 0 0 0 0 0 0 0 0 0 0 0 0 0 0 0 0 0 0
0 0 0 0 0 0 0 0 0 0 0 0 0 0 0 0 0 0 0 0 0 0 0 0 0 0 0 0 0 0 0 0 0 0 0 0 0 0 0 0 0 0 0 0
0 0 0 0 0 0 0 0 0 0 0 0 0 0 0 0 0 0 0 0 0 0 0 0 0 0 0 0 0 0 0 0 0 0 0 0 0 0 0 0 0 0 0 0
0 0 0 0 0 0 0 0 0 0 0 0 0 0 0 0 0 0 0 0 0 0 0 0 0 0 0 0 0 0 0 0 0 0 0 0 0 0 0 0 0 0 0 0
0 0 0 0 0 0 0 0 0 0 0 0 0 0 0 0 0 0 0 0 0 0 0 0 0 0 0 0 0 0 0 0 0 0 0 0 0 0 0 0 0 0 0 0
0 0 0 0 0 0 0 0 0 0 0 0 0 0 0 0 0 0 0 0 0 0 0 0 0 0 0 0 0 0 0 0 0 0 0 0 0 0 0 0 0 0 0 0
0 0 0 0 0 0 0 0 0 0 0 0 0 0 0 0 0 0 0 0 0 0 0 0 0 0 0 0 0 0 0 0 0 0 0 0 0 0 0 0 0 0 0 0
0 0 0 0 0 0 0 0 0 0 0 0 0 0 0 0 0 0 0 0 0 0 0 0 0 0 0 0 0 0 0 0 0 0 0 0 0 0 0 0 0 0 0 0
0 0 0 0 0 0 0 0 0 0 0 0 0 0 0 0 0 0 0 0 0 0 0 0 0 0 0 0 0 0 0 0 0 0 0 0 0 0 0 0 0 0 0 0
0 0 0 0 0 0 0 0 0 0 0 0 0 0 0 0 0 0 0 0 0 0 0 0 0 0 0 0 0 0 0 0 0 0 0 0 0 0 0 0 0 0 0 0
0 0 0 0 0 0 0 0 0 0 0 0 0 0 0 0 0 0 0 0 0 0 0 0 0 0 0 0 0 0 0 0 0 0 0 0 0 0 0 0 0 0 0 0
Wind_Speed
5 6 6 6 4 1 4 6 7 5 4 6 7 8 9 9 9 10 11 10 10 9 8 7 7 7 7 7 7 7 7 7 5 4 3 2 3 2 3 3 5 4 5 5
7 6 4 4 4 4 5 7 7 5 4 5 7 7 7 8 10 10 11 11 11 10 9 9 9 9 8 8 8 8 7 7 5 3 2 2 2 2 3 2 2 3 5 5
5 4 6 6 6 6 5 5 5 6 5 4 6 7 8 8 8 8 8 9 10 10 11 11 10 9 8 8 8 6 7 7 6 5 3 2 3 2 2 2 2 3 4 4
3 4 7 8 7 6 5 3 4 6 6 5 7 6 9 10 10 10 10 10 10 10 10 10 10 10 9 9 8 7 7 7 6 5 4 3 1 1 2 2 2 3 3 4
4 6 8 8 6 5 3 4 4 5 4 5 7 6 8 11 13 13 12 11 11 11 11 10 10 10 9 8 7 7 7 6 6 4 4 3 2 2 2 2 3 3 4 4
2 3 5 4 4 5 7 7 4 2 4 7 8 7 7 11 15 15 13 12 12 11 10 10 9 9 9 8 8 7 7 7 6 5 5 3 3 3 3 2 3 2 3 3
6 6 5 5 7 8 8 7 5 6 6 5 5 7 5 8 11 13 15 14 12 11 10 11 11 11 10 10 9 8 9 8 7 6 5 4 4 3 3 3 3 2 3 3
7 7 8 7 7 8 10 8 4 4 6 5 6 7 3 5 6 9 12 12 12 12 11 11 11 11 10 11 10 9 9 9 8 7 5 4 4 2 3 3 2 3 3 3
5 5 6 5 4 6 7 6 2 3 3 4 7 5 4 6 8 11 12 13 13 13 12 11 11 11 11 11 10 10 10 9 8 7 6 5 4 3 4 3 3 3 3 3
3 4 7 6 5 3 3 4 4 4 4 5 6 7 6 12 13 13 14 15 14 13 12 12 11 11 10 10 10 9 9 9 9 7 6 4 4 4 3 3 3 3 3 3
6 5 7 8 9 9 7 7 5 4 4 3 4 4 3 10 14 16 16 16 15 14 13 12 11 11 10 10 10 10 9 9 8 7 7 6 5 4 4 3 3 2 2 3
7 5 6 7 3 4 8 8 8 5 4 3 3 2 4 4 10 13 14 14 14 14 13 12 12 12 11 11 10 10 10 9 8 7 7 6 6 5 4 4 3 2 2 2
8 6 6 7 6 7 8 9 10 7 4 5 5 2 5 4 8 11 13 14 14 14 13 13 12 12 11 11 11 10 9 9 8 7 7 7 6 5 4 4 3 3 3 2
6 7 6 4 2 7 9 11 12 11 7 7 7 5 3 5 8 11 13 14 15 15 14 14 13 12 12 11 11 11 10 9 9 8 7 7 6 5 4 4 4 3 3 3
7 7 7 6 2 6 9 12 14 16 13 10 7 7 7 6 9 11 14 15 15 16 16 15 14 13 12 12 11 11 10 9 9 9 8 7 6 5 5 5 4 3 3 3
7 7 5 6 5 8 9 11 14 15 15 14 12 11 7 5 7 11 14 16 17 17 17 16 15 15 15 14 12 12 11 10 10 9 8 7 7 7 6 5 5 4 3 3
7 7 6 6 4 5 10 12 14 14 13 13 14 11 6 6 10 13 15 17 18 18 18 17 17 16 15 15 14 13 12 11 10 9 9 8 7 7 6 6 5 5 4 3
8 8 5 4 5 9 3 1 7 11 13 13 12 10 8 8 8 9 13 16 17 17 17 17 16 15 14 14 13 12 12 12 11 10 9 9 8 7 7 6 6 5 4 4
6 6 5 5 7 7 5 4 6 8 9 10 13 12 8 4 5 8 12 14 15 16 16 15 15 15 15 15 14 14 13 12 11 10 10 9 9 8 7 7 6 5 4 4
5 7 6 6 6 6 2 3 4 5 6 4 7 9 7 8 8 7 10 13 13 13 13 13 14 15 15 15 14 14 14 13 12 11 10 9 9 8 8 7 6 5 4 4
8 7 9 9 8 6 1 5 6 6 1 1 3 5 8 10 7 2 7 10 12 13 13 14 14 14 14 15 15 15 14 13 11 10 10 9 9 8 7 6 6 5 5 4
8 7 8 7 8 5 4 7 6 3 4 2 3 3 6 8 4 3 6 9 11 13 14 15 14 13 13 14 15 15 13 11 11 10 10 9 8 7 7 7 6 6 5 5
7 5 4 6 3 2 3 4 3 5 5 4 3 3 4 5 5 5 6 8 11 13 13 13 14 13 13 14 14 14 12 11 12 11 10 9 9 7 7 7 7 6 6 5
5 2 4 6 5 4 4 5 6 6 6 5 5 4 4 5 4 5 6 8 10 12 13 13 14 14 13 14 13 12 12 12 12 12 11 9 9 8 8 6 6 6 6 5
3 6 5 6 5 4 3 4 4 4 5 4 3 3 3 4 4 5 6 8 9 10 11 12 13 13 14 13 13 12 12 12 12 11 10 9 8 8 7 7 5 6 5 4
5 6 5 5 3 4 3 4 4 4 4 3 2 1 2 3 4 5 5 6 8 10 10 11 12 12 12 13 13 12 12 12 12 10 10 8 7 7 6 6 6 4 5 3
Wind_Direction
174 199 193 181 187 236 187 183 174 153 152 181 178 171 173 178 192 191 186 183 185 182 174 170 171 169 165 165 166 156 158 151 149 149 149 133 114 103 88 66 52 46 38 32
180 200 180 158 170 201 187 178 164 147 156 187 177 178 180 187 198 196 191 187 187 181 176 174 175 174 171 169 174 167 160 158 159 146 130 123 107 93 78 82 81 45 37 30
198 147 168 180 187 191 190 190 171 161 155 177 179 187 188 186 196 191 198 197 194 188 183 175 174 172 172 174 176 168 159 158 159 154 142 144 133 148 142 113 75 46 35 33
199 164 185 195 196 203 186 174 173 173 185 181 208 197 191 185 189 193 192 193 194 189 188 177 173 175 179 174 172 170 163 159 153 161 171 166 154 115 88 75 79 81 54 46
177 182 196 205 197 199 159 148 168 188 198 198 207 212 186 184 196 194 190 189 189 187 186 181 177 176 174 166 166 165 157 156 157 166 158 179 145 115 113 111 94 80 74 57
180 190 217 211 180 180 148 144 139 183 209 213 202 217 195 190 201 192 186 187 185 181 179 177 171 168 165 162 159 159 158 155 156 166 169 164 134 139 131 122 99 96 94 78
184 191 186 180 158 168 182 173 176 187 202 201 182 227 215 178 195 192 185 183 180 176 175 173 170 170 166 164 163 163 161 157 159 164 162 151 139 130 123 118 103 82 86 79
190 184 185 195 204 186 193 206 219 200 187 167 185 224 175 141 181 188 184 178 174 174 176 173 170 168 167 165 164 166 163 158 158 160 152 141 131 128 104 99 92 83 70 65
204 163 154 185 207 196 184 205 268 288 190 191 189 204 185 166 179 181 179 177 176 174 173 172 167 167 166 164 165 166 163 159 159 158 150 145 139 124 116 120 105 89 81 72
231 171 158 162 171 191 231 179 196 227 205 200 191 207 195 176 183 182 182 181 176 173 171 168 165 165 163 160 161 164 164 159 158 158 154 146 141 131 121 120 106 97 90 80
226 199 160 177 199 186 178 193 211 227 259 255 191 180 179 186 183 184 185 181 176 174 171 167 165 162 158 157 161 163 162 159 158 159 155 156 150 147 144 126 114 117 112 116
210 228 182 182 168 217 213 213 214 228 210 259 279 115 96 194 184 184 181 177 174 171 168 165 162 160 160 161 163 164 161 161 161 160 161 162 151 160 154 138 139 142 110 95
179 215 179 167 177 190 211 218 224 240 258 240 248 126 113 170 179 183 180 174 171 169 167 164 164 166 164 163 164 163 165 161 160 163 166 163 160 163 152 140 136 135 118 114
204 231 237 219 187 183 200 206 211 218 231 235 240 262 213 187 183 181 180 177 173 174 172 170 169 170 167 166 167 163 164 162 162 165 170 166 163 159 153 136 142 137 126 117
221 245 241 257 241 210 219 211 207 220 234 251 259 263 259 220 192 184 179 177 176 178 178 177 175 171 169 168 170 164 162 164 166 168 168 165 160 153 149 141 142 138 130 121
224 248 238 235 217 222 234 229 220 226 238 246 261 269 267 233 194 185 183 181 184 184 184 181 179 175 174 171 171 166 165 167 169 168 166 160 165 158 159 151 149 145 138 126
205 231 238 238 192 219 239 231 224 221 225 233 244 250 233 208 199 195 189 189 191 188 185 183 182 181 177 175 173 171 168 166 171 170 165 164 168 163 163 155 153 153 151 139
210 223 239 245 214 242 249 138 226 231 238 236 249 256 243 230 215 207 198 194 194 189 186 185 183 180 176 172 171 166 165 169 173 172 169 169 170 167 165 166 166 167 162 156
228 217 228 237 246 262 262 218 205 220 246 238 239 247 242 204 192 209 204 202 198 191 187 183 182 177 173 171 170 168 170 173 175 175 174 174 175 173 174 176 176 171 170 168
205 226 234 229 243 250 261 124 173 221 246 235 231 235 210 180 209 207 183 194 194 187 181 176 174 173 172 171 170 174 175 177 180 176 175 174 176 176 178 180 178 171 175 177
181 201 223 234 246 256 318 127 173 222 303 21 238 227 195 202 228 156 159 179 182 178 173 169 170 173 172 170 174 179 179 181 174 168 169 171 177 179 178 177 178 178 181 187
205 203 213 221 233 242 126 162 207 308 0 327 277 246 218 223 231 166 161 167 170 169 168 169 170 170 168 172 178 181 182 172 163 164 169 172 176 177 175 177 182 185 186 193
223 235 229 231 252 29 165 224 295 324 308 310 294 272 243 230 216 192 174 167 169 168 168 170 170 167 169 177 183 183 175 165 164 167 171 175 176 179 181 182 184 188 195 207
187 197 228 242 257 265 259 267 273 275 281 301 300 278 235 221 202 184 174 168 168 169 168 169 170 172 173 178 184 182 167 168 171 174 176 178 181 179 183 188 194 196 201 209
183 185 219 244 266 267 252 257 281 282 280 286 286 264 237 210 190 180 174 171 171 169 169 172 177 178 176 175 180 178 170 172 176 177 179 181 184 184 188 190 199 207 209 219
200 207 226 255 293 288 312 350 325 294 289 289 278 249 212 200 186 177 174 170 170 170 171 175 180 180 177 175 178 176 175 177 179 180 182 184 184 187 191 193 193 207 229 210